Dewpoint
-7 2 1 0 1 -1 -4 -5 -7 -2 1 -1 11 12 13 14 8 16 13 13 7 6 8 7 8 11 12 13 12 8 8 3 -3 -1 2 5 7 9 6 3 9 9 7 5 6 6 4 5 6
-5 -0 2 -0 1 -2 -1 -3 1 2 2 11 13 12 13 14 14 13 13 13 13 12 4 4 6 6 10 13 11 10 8 2 -3 -1 1 2 2 5 2 5 7 8 4 5 6 4 4 5 6
-1 1 1 -2 -0 0 1 0 3 3 4 10 12 13 15 15 12 12 12 11 12 13 2 3 6 6 7 12 11 11 6 -0 -5 -3 -2 -2 1 1 5 4 3 4 5 6 5 4 5 6 6
0 0 -1 -0 1 -1 1 5 7 10 12 12 12 13 15 15 12 11 11 10 12 9 3 3 4 6 7 9 10 7 1 -3 -6 -7 -4 -2 -1 1 4 3 3 4 4 4 5 5 6 5 6
-2 -1 -3 -2 -2 -3 -3 2 4 11 12 14 13 13 12 14 14 12 11 11 12 7 4 4 4 3 2 3 4 1 -3 -6 -7 -5 -2 -2 -1 2 3 2 3 4 4 4 4 4 5 5 5
-2 -4 -2 -3 -3 -4 -4 -3 -1 0 12 14 12 8 8 12 14 14 13 12 13 12 5 5 5 3 0 -2 -2 -2 -4 -6 -6 -2 -0 -2 -1 1 3 4 4 4 4 4 4 4 4 3 3
-3 -4 -4 -5 -3 -5 -5 -4 -3 -2 -2 0 4 5 6 12 14 14 13 13 13 13 11 8 6 6 3 -1 -3 -4 -5 -5 -3 -1 -0 -2 -1 1 1 4 4 3 2 2 3 2 2 1 0
-3 -5 -5 -5 -4 -5 -6 -4 -3 -3 -3 -2 -0 2 5 9 13 14 14 13 13 13 13 14 12 10 7 4 -0 -3 -5 -5 -2 0 0 -2 -2 1 3 4 5 4 2 1 -0 -1 -1 -2 -2
-6 -2 -4 -5 -5 -5 -6 -4 -3 -3 -3 -3 -3 -1 3 6 13 14 13 14 14 13 13 14 14 15 12 10 5 1 -3 -4 -4 -1 0 -1 -3 2 5 5 6 4 3 -1 -3 -4 -4 -5 -5
-9 -6 -7 -8 -7 -6 -6 -5 -4 -4 -4 -4 -4 -3 -2 0 2 6 9 11 13 14 14 14 14 14 14 14 12 10 4 -2 -3 -1 1 5 11 5 9 8 5 5 4 -1 -2 0 1 -0 -4
-10 -7 -10 -11 -8 -6 -6 -6 -5 -5 -5 -4 -4 -4 -2 -1 -0 0 2 3 5 9 13 13 13 13 14 14 14 12 12 11 7 9 7 8 11 9 11 10 8 6 6 1 4 6 11 11 11
-10 -11 -11 -11 -10 -7 -6 -6 -6 -6 -6 -6 -5 -4 -3 -2 -1 -1 -0 2 3 4 4 12 13 13 13 13 14 14 14 12 11 10 10 9 12 10 10 11 9 5 8 7 6 7 10 12 12
-11 -11 -11 -11 -10 -8 -7 -7 -7 -7 -7 -7 -7 -5 -4 -3 -2 -2 -1 0 3 4 0 1 7 9 13 13 13 13 13 14 13 11 11 9 12 12 11 8 9 9 11 11 11 11 11 12 11
-12 -13 -13 -13 -12 -10 -8 -8 -8 -8 -8 -7 -7 -7 -5 -4 -2 -2 -2 -1 2 3 4 2 4 -3 -1 8 13 13 13 13 14 13 12 12 10 11 12 9 8 9 10 10 11 11 11 11 12
-14 -13 -14 -14 -14 -14 -8 -7 -9 -8 -8 -7 -7 -6 -6 -5 -3 -2 -2 -2 1 2 4 4 5 -4 -5 -2 4 10 13 13 13 14 13 13 12 9 11 11 10 9 10 10 10 11 11 11 11
-13 -13 -10 -15 -15 -17 -17 -4 -8 -9 -8 -7 -7 -6 -6 -5 -4 -2 -1 -1 0 2 2 3 4 0 -3 -2 -1 4 8 14 14 14 13 13 14 13 9 10 11 11 10 10 10 11 11 11 11
-14 -11 -11 -13 -16 -17 -14 -5 -7 -7 -7 -7 -7 -7 -6 -6 -5 -3 -2 -1 -0 1 1 1 2 1 1 -0 -0 5 5 8 12 14 14 13 13 13 14 10 10 10 11 10 10 10 11 11 10
-13 -13 -11 -11 -13 -12 -7 -6 -6 -6 -6 -6 -7 -6 -6 -6 -6 -4 -3 -2 -1 1 0 -1 0 1 1 -1 1 2 3 6 9 12 13 13 14 13 14 13 11 9 9 10 10 10 10 10 10
-16 -14 -13 -15 -14 -11 -8 -5 -5 -5 -6 -7 -7 -6 -5 -6 -6 -5 -5 -3 -2 -1 0 -0 -1 -1 0 -2 3 1 0 6 7 9 10 12 13 13 13 12 13 12 8 8 10 11 10 10 9
-15 -13 -12 -14 -14 -10 -8 -5 -5 -5 -7 -7 -9 -8 -7 -6 -6 -5 -5 -4 -4 -2 -1 0 -1 -1 -1 -1 2 2 4 5 6 5 3 8 11 12 12 10 8 12 13 9 9 9 11 10 10
-14 -12 -14 -13 -14 -13 -12 -5 -5 -6 -8 -11 -10 -9 -9 -8 -7 -6 -5 -4 -4 -3 -2 -1 -1 -2 -2 -4 -3 -2 1 1 3 4 6 4 4 8 11 11 11 10 13 13 11 8 9 11 11
-10 -17 -16 -16 -11 -8 -12 -5 -4 -5 -8 -12 -11 -10 -9 -8 -8 -8 -7 -6 -4 -3 -2 -1 -1 -3 -2 -3 -5 -3 2 2 3 4 4 5 5 4 7 9 11 10 10 9 13 12 9 9 11
-10 -15 -13 -13 -10 -9 -12 -13 -5 -8 -8 -9 -12 -11 -10 -10 -10 -10 -9 -9 -6 -3 -3 -2 -1 -3 -3 -2 -3 -3 -3 0 2 3 3 4 4 4 6 7 10 10 10 11 9 10 12 11 10
-11 -10 -9 -9 -8 -3 -8 -13 -4 -7 -10 -13 -11 -11 -10 -9 -9 -8 -8 -9 -8 -4 -3 -2 -1 -3 -3 -2 -2 -2 -4 -2 -1 1 3 2 3 3 5 4 5 9 10 10 11 9 11 11 12
-10 -5 7 2 3 5 -7 -10 -3 -9 -11 -11 -11 -10 -10 -8 -7 -7 -7 -6 -4 -3 -3 -2 -1 -2 -2 -2 -2 -2 -3 -2 -1 0 2 3 2 2 3 4 4 6 7 9 10 10 11 10 10
-10 -5 8 8 2 -5 -8 -12 -0 -12 -13 -10 -10 -12 -8 -7 -6 -5 -5 -5 -4 -4 -3 -2 -1 -2 -2 -2 -2 -2 -3 -2 -1 -1 0 1 2 1 3 2 4 5 5 7 9 10 10 10 10
-7 -1 -6 -2 -4 -5 -14 -6 -8 -14 -13 -13 -12 -9 -8 -6 -6 -6 -5 -3 -3 -3 -4 -2 -1 -2 -2 -2 -2 -2 -5 -3 -2 -1 0 0 1 1 1 2 3 4 5 6 7 8 9 10 10
-5 -8 1 5 5 3 -6 -9 -5 -10 -13 -13 -11 -8 -7 -6 -6 -6 -6 -4 -4 -3 -3 -3 -2 -2 -2 -2 -3 -3 -3 -4 -4 -3 -2 -1 -1 1 1 2 2 3 4 5 5 5 6 9 9
-7 -5 -2 -2 -1 3 -2 -7 -10 -11 -12 -11 -10 -8 -7 -7 -7 -7 -6 -5 -5 -4 -4 -3 -3 -2 -2 -2 -3 -3 -3 -2 -4 -4 -4 -2 -1 -0 0 1 -1 -1 3 4 3 2 2 2 6
-11 -7 -4 5 5 -3 -4 -6 -12 -10 -10 -11 -10 -9 -8 -7 -7 -7 -7 -6 -5 -5 -4 -4 -4 -3 -3 -3 -4 -4 -3 -3 -3 -4 -5 -5 -2 -2 -1 1 -1 -2 -2 1 1 1 1 1 2
Wind_Speed
7 6 8 8 5 6 7 8 5 11 10 10 35 27 32 22 9 7 16 17 12 14 12 14 12 10 10 9 7 8 9 9 9 9 9 9 9 9 9 10 13 13 13 15 15 15 15 17 17
8 6 7 8 5 6 10 8 15 10 8 23 29 28 35 26 28 20 20 15 15 13 13 14 14 11 10 9 7 7 8 8 7 7 7 8 8 8 9 11 12 12 14 14 15 15 16 18 20
10 9 9 4 6 11 10 7 10 9 4 15 13 21 13 10 27 20 17 16 15 11 14 15 14 11 10 9 7 6 6 6 6 6 6 7 7 8 10 10 11 12 14 15 16 16 16 18 20
8 7 9 7 21 19 18 18 28 25 36 23 14 19 12 22 12 17 16 15 12 8 14 15 14 12 10 8 6 5 5 6 6 6 6 7 7 8 9 9 11 12 13 14 15 15 16 17 21
13 9 4 17 19 17 15 24 30 28 21 24 28 12 8 24 22 16 16 16 10 9 13 14 13 12 10 8 6 5 6 6 5 5 6 7 7 8 9 9 11 12 11 12 13 14 15 15 19
12 21 13 15 16 17 17 25 33 31 28 15 29 16 11 14 17 22 15 13 13 9 11 11 12 11 9 8 7 6 5 5 5 4 6 6 8 7 8 10 10 10 10 11 11 12 13 13 14
17 8 22 20 14 16 18 27 28 31 27 27 27 14 15 16 14 15 22 16 14 10 11 9 8 8 8 7 7 6 5 4 3 3 4 6 7 8 8 8 7 8 9 9 10 10 11 11 12
18 4 22 20 13 15 26 31 32 32 34 34 18 16 15 17 14 12 17 16 17 15 11 8 10 6 5 5 5 4 4 3 2 2 3 4 5 7 6 5 6 7 7 8 8 9 9 9 10
16 10 15 17 14 15 24 24 29 30 37 38 34 31 22 17 11 14 14 12 11 9 9 10 11 4 10 6 4 3 2 1 0 0 1 3 4 5 6 6 4 3 5 7 7 7 7 7 9
9 16 22 19 18 12 24 23 26 30 30 31 28 26 23 23 30 26 24 18 11 6 6 6 4 6 5 4 9 10 3 2 3 2 2 3 4 2 3 2 5 5 4 5 6 7 7 8 8
20 18 21 16 18 21 25 30 29 24 22 24 24 23 23 25 26 26 28 25 20 15 4 1 3 2 3 1 0 12 11 10 5 4 3 5 7 6 12 9 10 7 6 6 7 7 10 8 4
25 25 23 15 16 18 23 25 29 28 21 19 19 20 21 25 26 24 23 21 22 20 15 8 4 7 8 8 7 5 8 9 7 7 9 7 9 10 10 9 10 10 4 6 6 7 3 3 5
22 24 22 19 19 21 24 27 22 22 18 17 18 21 23 24 23 22 21 21 20 22 18 16 13 9 8 12 13 12 10 7 11 10 14 11 11 11 14 13 14 8 10 8 8 6 6 6 9
22 21 18 17 16 17 22 23 17 15 14 17 17 20 22 22 22 21 22 22 21 21 22 19 17 15 12 11 16 17 16 15 12 12 15 19 15 15 18 14 17 16 14 13 15 9 12 11 8
22 19 15 10 5 6 15 16 13 12 13 16 17 18 20 20 20 22 20 21 21 21 21 22 19 18 17 14 13 17 16 21 22 17 17 17 23 21 18 19 18 19 18 17 18 17 17 13 10
10 10 7 7 1 2 5 11 11 9 12 15 16 17 19 20 20 20 20 20 21 22 23 23 22 22 19 17 15 15 13 18 19 21 22 21 22 26 25 24 21 20 19 20 24 21 19 21 17
7 7 14 8 4 1 3 11 10 8 12 13 15 16 15 18 19 20 20 19 20 22 24 23 25 27 23 19 16 15 16 14 20 22 21 24 29 25 26 27 25 22 23 23 22 21 21 19 18
8 7 7 9 3 10 14 12 9 9 10 12 13 13 14 17 18 18 19 20 20 23 23 24 24 26 25 21 18 17 14 14 19 18 23 20 27 27 28 25 28 27 24 26 25 25 23 22 20
9 12 11 8 2 4 10 11 9 6 9 10 11 12 13 14 15 17 18 19 20 23 24 26 26 27 27 26 25 23 22 19 21 24 18 21 24 25 23 13 28 31 31 28 28 26 28 24 23
6 10 9 8 2 5 8 10 9 8 8 7 9 11 11 12 14 15 17 19 20 21 23 23 25 26 27 26 22 21 19 16 17 23 26 19 20 20 20 24 32 45 32 33 28 29 29 30 26
13 12 6 6 1 2 5 11 11 8 9 9 9 9 10 11 13 15 16 16 17 19 23 21 22 24 25 26 25 24 20 19 19 23 26 27 24 21 25 19 28 41 25 29 29 35 31 30 28
4 5 3 3 5 1 4 2 13 13 11 8 7 6 6 9 11 13 15 17 16 16 19 21 20 21 23 26 27 25 24 24 23 22 22 25 30 24 20 19 20 26 32 45 38 31 38 37 34
5 3 4 5 7 6 9 5 10 11 10 10 7 3 5 9 13 15 17 16 15 15 16 19 19 19 22 23 24 25 25 23 24 23 23 20 23 28 20 20 17 20 26 22 43 44 33 35 40
2 2 2 3 5 4 3 2 9 6 7 4 7 6 8 11 15 15 16 15 14 14 16 15 17 17 20 22 22 23 24 23 24 25 23 26 22 24 21 23 19 17 19 33 32 38 43 37 38
3 2 2 3 3 2 6 2 9 7 5 4 5 5 9 13 12 13 13 15 14 14 13 14 16 17 19 21 21 21 23 21 22 23 22 23 24 26 21 21 22 18 19 22 22 29 26 37 41
4 4 2 3 3 5 6 6 6 6 5 4 1 6 7 9 10 12 13 12 12 12 11 12 15 17 18 20 21 20 21 22 21 22 21 19 21 22 22 21 18 17 17 19 21 16 23 34 40
3 2 3 3 4 3 5 6 6 9 8 4 1 3 6 6 8 10 11 9 11 11 11 11 13 14 16 19 20 20 22 22 22 21 20 21 21 20 22 22 22 15 14 15 20 20 23 18 20
5 3 2 2 0 3 6 10 2 11 8 5 1 3 5 6 8 9 11 11 9 10 11 11 12 14 16 18 20 20 23 22 22 21 21 20 22 22 19 22 25 19 13 14 21 22 18 22 19
3 2 2 1 3 3 3 2 7 9 6 1 3 3 5 6 8 10 10 10 10 11 11 11 12 15 16 18 20 21 21 22 21 21 22 22 21 21 21 19 23 21 18 18 20 22 21 19 18
3 1 6 2 3 4 4 5 8 9 4 3 5 7 6 7 9 11 11 11 12 12 13 13 13 15 16 18 20 20 21 21 21 21 22 23 22 22 19 21 23 20 19 22 23 24 21 23 22
Wind_Direction
277 300 301 287 245 223 73 85 51 50 89 55 86 82 75 77 67 95 84 83 98 109 102 96 86 90 101 98 95 83 58 49 61 76 78 78 80 83 81 91 98 101 101 103 105 104 102 100 99
309 318 276 262 249 200 64 32 72 68 99 92 62 76 63 49 89 89 92 86 89 93 103 96 94 91 96 95 88 78 59 46 51 78 75 74 77 86 91 101 103 105 107 108 106 104 104 103 100
319 318 295 221 30 79 101 32 103 103 127 130 84 54 40 18 68 92 93 95 99 111 103 97 93 87 89 94 89 69 43 57 58 70 77 77 87 93 102 104 106 108 111 110 110 108 107 105 104
319 251 255 77 67 42 24 22 20 40 39 53 96 61 54 34 58 85 91 89 108 88 101 96 93 89 84 86 84 59 45 50 72 71 77 82 94 104 109 108 111 115 116 115 114 112 111 108 111
261 269 81 85 73 59 24 42 50 54 48 26 73 67 40 42 58 82 84 85 77 84 95 92 88 85 83 80 71 60 50 53 61 76 78 94 98 110 112 116 119 119 119 117 116 115 115 115 118
274 236 107 92 84 67 42 43 67 57 86 81 67 82 21 10 62 44 84 79 73 67 92 89 86 82 78 76 69 60 60 57 57 65 85 96 110 112 118 121 120 121 123 122 121 120 119 118 119
267 293 104 98 90 71 58 60 55 65 56 69 68 83 39 72 44 47 101 91 79 63 60 61 80 79 76 72 70 64 62 63 67 71 86 103 119 122 127 129 127 123 126 131 132 130 127 125 122
288 111 111 105 91 87 84 71 70 68 65 63 57 53 47 30 37 100 99 103 102 104 77 36 20 35 74 68 66 60 58 66 73 85 97 114 129 134 126 130 132 132 137 144 143 142 138 131 124
301 130 92 95 94 106 93 84 74 75 72 63 65 65 64 56 76 108 100 102 112 113 109 107 120 63 354 25 31 27 26 38 134 182 131 140 149 156 148 149 139 153 152 153 150 143 133 125 119
313 93 91 88 77 61 55 66 81 70 62 63 63 60 58 55 47 48 51 54 63 91 84 133 136 140 109 275 330 324 317 286 270 252 201 121 131 197 309 246 208 195 193 171 152 141 129 121 112
78 101 100 84 112 98 78 64 57 68 58 55 54 57 55 54 51 50 44 36 30 29 38 327 307 261 186 330 323 343 343 337 325 295 269 144 191 248 220 250 255 222 209 195 168 146 101 71 55
90 91 98 94 80 79 78 77 64 62 63 61 61 57 53 51 49 45 43 40 31 21 28 26 353 252 244 242 241 233 245 293 289 284 274 183 235 238 236 235 273 229 220 218 206 175 143 104 220
95 97 96 99 93 87 85 74 72 62 63 59 62 59 57 51 47 44 41 34 30 21 23 31 10 322 275 254 250 238 225 255 244 256 273 261 216 242 255 205 243 242 224 219 244 220 256 202 231
121 114 112 106 102 93 80 63 71 57 59 62 59 58 53 50 44 39 35 31 28 20 14 17 13 2 353 287 263 255 240 245 242 237 259 277 238 224 248 232 228 219 223 230 232 216 232 240 232
122 111 93 100 70 107 111 62 56 64 65 65 61 56 53 44 40 37 31 28 20 22 16 15 8 358 0 358 344 271 256 246 246 246 234 253 268 241 228 244 233 227 223 221 226 222 221 216 218
145 161 123 56 215 99 236 91 70 64 75 68 61 58 54 45 39 34 30 27 18 21 17 19 6 358 4 359 353 353 276 270 252 251 250 242 253 261 236 233 232 241 235 233 234 224 227 223 208
187 87 104 88 54 115 222 105 91 81 80 70 61 56 49 47 41 34 28 27 19 18 17 18 10 2 6 0 359 354 345 304 273 270 262 252 249 248 252 232 237 227 236 236 242 236 229 226 227
115 95 71 100 22 86 85 109 111 92 79 78 66 56 46 43 39 33 29 26 21 18 20 12 13 5 0 360 4 348 344 346 332 303 283 290 274 247 237 240 237 232 230 235 236 238 238 229 229
92 105 103 102 313 90 121 131 117 100 84 64 63 51 42 33 31 27 27 25 20 17 16 13 13 7 358 360 5 354 352 2 351 328 313 296 308 297 270 265 255 245 229 231 235 241 239 233 232
86 123 97 106 101 248 160 134 127 125 104 79 56 51 44 33 22 18 15 13 14 16 12 11 12 6 357 6 360 347 5 348 353 330 331 300 309 295 281 251 252 265 244 229 230 233 243 242 228
44 37 33 20 72 307 199 156 158 151 130 103 72 50 39 26 12 5 1 4 1 6 6 7 8 2 356 3 358 358 355 350 346 359 347 333 328 320 293 304 265 255 258 245 237 232 233 240 238
107 20 327 288 256 266 199 104 179 159 149 130 98 65 34 8 1 353 347 344 351 1 1 359 3 359 356 360 1 5 358 355 360 352 343 352 336 336 335 311 311 274 272 266 256 234 234 232 237
55 346 331 313 280 324 198 257 121 153 177 143 110 58 14 344 355 348 341 334 335 349 0 354 356 358 353 356 360 360 360 3 352 357 358 346 346 338 343 329 312 303 258 260 249 264 239 236 236
66 263 231 261 274 263 138 328 144 153 66 60 79 38 355 353 357 351 345 340 333 348 353 2 351 354 351 352 357 357 354 0 355 350 0 355 344 340 350 332 333 306 280 269 269 261 260 257 241
233 339 258 209 178 256 106 275 82 92 83 57 36 355 9 12 7 356 359 353 352 348 346 353 351 352 351 350 353 356 352 353 355 348 355 359 351 345 350 332 330 331 311 296 294 270 262 266 263
20 338 352 251 315 13 153 241 134 107 108 90 24 22 16 13 6 355 355 349 345 344 341 351 352 350 349 347 347 351 348 348 347 348 352 348 346 352 341 333 322 319 331 315 304 294 273 271 263
60 64 12 294 232 271 257 102 171 155 136 136 34 15 11 357 355 354 347 359 346 336 338 345 343 344 344 345 346 344 345 344 343 346 345 347 342 348 348 352 340 325 321 327 318 301 291 290 276
10 66 205 58 225 258 280 305 193 167 169 140 334 12 346 347 342 346 345 343 338 338 333 335 331 337 339 343 344 340 340 341 341 342 340 343 344 346 351 351 338 345 339 317 309 312 307 278 281
137 132 72 283 288 276 302 61 56 112 103 55 318 332 313 324 323 327 330 329 324 327 332 328 326 330 332 338 337 334 335 334 338 341 340 341 344 344 350 344 335 347 352 335 319 316 321 324 302
326 172 176 227 192 254 312 286 82 103 91 291 291 296 284 295 308 318 318 318 316 315 319 320 316 320 322 329 331 331 328 330 335 336 337 339 342 342 346 338 339 343 343 339 340 337 338 332 330
Height
1514 1511 1514 1515 1518 1504 1499 1501 1491 1497 1502 1509 1514 1524 1535 1547 1540 1560 1555 1554 1556 1557 1560 1560 1561 1562 1563 1566 1567 1569 1570 1570 1571 1571 1572 1572 1573 1573 1573 1573 1574 1574 1575 1576 1576 1578 1578 1579 1580
1514 1515 1513 1513 1513 1506 1513 1497 1503 1505 1509 1511 1518 1526 1533 1548 1548 1553 1557 1561 1562 1561 1563 1564 1564 1566 1566 1568 1570 1571 1572 1573 1574 1574 1575 1575 1575 1575 1576 1576 1576 1577 1578 1578 1579 1580 1581 1582 1583
1515 1516 1516 1504 1505 1511 1517 1504 1505 1508 1511 1508 1525 1535 1540 1553 1555 1559 1564 1566 1566 1563 1566 1567 1568 1569 1570 1571 1573 1574 1575 1575 1576 1577 1578 1578 1578 1578 1578 1579 1579 1579 1580 1581 1581 1582 1583 1584 1586
1515 1515 1515 1508 1520 1519 1519 1514 1516 1515 1524 1523 1525 1543 1556 1560 1561 1565 1567 1569 1566 1568 1569 1570 1570 1572 1573 1574 1576 1577 1577 1578 1578 1579 1580 1581 1581 1581 1581 1582 1582 1582 1583 1583 1584 1585 1586 1587 1588
1518 1511 1508 1519 1530 1528 1527 1526 1533 1533 1539 1545 1536 1557 1561 1563 1563 1569 1570 1571 1569 1571 1572 1572 1573 1575 1576 1577 1578 1579 1579 1580 1581 1581 1582 1583 1583 1583 1584 1584 1585 1585 1585 1586 1586 1587 1588 1589 1590
1517 1505 1513 1537 1540 1538 1536 1537 1540 1545 1554 1552 1548 1561 1573 1571 1568 1567 1570 1573 1574 1574 1574 1575 1576 1577 1578 1579 1580 1581 1581 1582 1583 1584 1584 1585 1585 1586 1586 1587 1587 1587 1587 1588 1588 1589 1590 1591 1592
1512 1503 1520 1538 1548 1549 1546 1547 1550 1557 1556 1558 1563 1565 1580 1572 1573 1571 1569 1575 1578 1578 1578 1578 1579 1580 1581 1581 1582 1582 1584 1585 1586 1586 1587 1587 1587 1587 1588 1589 1589 1589 1589 1589 1590 1591 1591 1592 1593
1517 1505 1522 1537 1552 1557 1555 1557 1563 1563 1564 1565 1563 1575 1581 1581 1578 1576 1574 1576 1578 1579 1583 1582 1581 1581 1582 1583 1584 1584 1585 1586 1587 1588 1588 1589 1589 1589 1590 1591 1591 1591 1591 1591 1592 1592 1593 1593 1594
1516 1515 1537 1550 1554 1556 1558 1561 1566 1569 1568 1569 1575 1580 1584 1584 1580 1576 1576 1579 1580 1580 1581 1582 1582 1585 1585 1585 1586 1586 1586 1587 1588 1589 1590 1590 1590 1591 1591 1591 1592 1593 1592 1593 1593 1594 1594 1595 1596
1511 1526 1547 1556 1560 1563 1562 1563 1567 1571 1575 1579 1583 1586 1587 1586 1582 1580 1581 1582 1583 1583 1583 1584 1584 1585 1587 1588 1588 1588 1588 1588 1589 1590 1591 1591 1591 1592 1592 1593 1593 1593 1594 1594 1594 1595 1596 1596 1598
1525 1540 1552 1561 1566 1569 1571 1572 1573 1574 1578 1585 1587 1589 1590 1588 1586 1588 1587 1588 1587 1587 1586 1585 1586 1587 1588 1588 1588 1589 1589 1589 1589 1590 1591 1592 1595 1594 1593 1594 1594 1594 1593 1594 1595 1596 1597 1598 1597
1540 1550 1561 1567 1571 1573 1576 1580 1580 1582 1589 1590 1591 1591 1592 1591 1590 1591 1592 1592 1591 1587 1587 1586 1585 1587 1588 1588 1588 1589 1591 1591 1590 1591 1591 1593 1596 1595 1595 1594 1593 1594 1593 1593 1595 1596 1597 1598 1601
1554 1563 1569 1574 1576 1577 1579 1583 1584 1589 1592 1593 1593 1594 1594 1595 1595 1596 1596 1595 1593 1590 1588 1587 1586 1585 1585 1586 1586 1588 1589 1589 1591 1592 1591 1592 1594 1595 1595 1595 1594 1594 1594 1594 1594 1594 1596 1598 1599
1565 1569 1572 1575 1579 1580 1581 1586 1587 1594 1594 1595 1595 1596 1596 1598 1599 1598 1597 1597 1594 1594 1591 1589 1587 1585 1584 1583 1584 1585 1587 1589 1588 1590 1592 1590 1592 1593 1594 1594 1594 1594 1595 1595 1595 1595 1595 1595 1596
1566 1568 1573 1576 1578 1580 1581 1592 1595 1596 1597 1597 1598 1598 1600 1601 1602 1601 1600 1599 1596 1596 1594 1591 1588 1585 1584 1582 1582 1582 1583 1585 1586 1586 1587 1588 1588 1590 1591 1592 1592 1592 1593 1594 1594 1594 1594 1593 1594
1565 1563 1570 1581 1580 1581 1581 1597 1598 1598 1598 1599 1600 1600 1602 1605 1605 1604 1603 1602 1599 1597 1594 1592 1590 1586 1584 1582 1581 1580 1580 1580 1580 1581 1583 1584 1585 1585 1587 1588 1590 1591 1592 1591 1591 1591 1591 1591 1590
1561 1566 1577 1581 1579 1578 1580 1594 1599 1600 1600 1602 1603 1604 1606 1607 1607 1607 1606 1603 1601 1597 1595 1593 1591 1587 1584 1583 1581 1580 1579 1577 1577 1576 1576 1576 1578 1579 1579 1582 1584 1585 1586 1587 1588 1588 1589 1589 1589
1562 1568 1573 1579 1583 1581 1587 1596 1599 1601 1602 1604 1606 1607 1609 1609 1609 1609 1607 1605 1602 1599 1597 1594 1592 1588 1585 1583 1580 1579 1578 1577 1575 1573 1572 1570 1566 1561 1568 1575 1580 1581 1580 1581 1583 1584 1585 1586 1587
1557 1567 1581 1586 1586 1581 1587 1593 1599 1602 1603 1605 1606 1609 1610 1610 1611 1610 1609 1607 1604 1601 1599 1595 1593 1589 1585 1582 1580 1577 1576 1576 1577 1572 1571 1569 1565 1559 1547 1552 1570 1578 1575 1575 1578 1580 1581 1581 1582
1562 1570 1582 1585 1587 1584 1586 1592 1597 1601 1605 1607 1608 1610 1611 1612 1612 1611 1609 1608 1606 1603 1600 1597 1595 1592 1587 1585 1583 1580 1578 1577 1577 1571 1569 1566 1561 1561 1561 1563 1563 1568 1570 1571 1570 1574 1575 1577 1578
1583 1581 1585 1587 1587 1583 1583 1589 1596 1601 1604 1607 1610 1612 1613 1613 1613 1612 1611 1609 1608 1603 1602 1600 1597 1593 1590 1586 1582 1579 1578 1575 1573 1571 1569 1564 1561 1557 1558 1560 1562 1561 1537 1563 1564 1566 1567 1571 1572
1578 1592 1591 1587 1586 1581 1581 1584 1587 1595 1600 1605 1608 1612 1613 1614 1613 1613 1611 1609 1608 1603 1603 1601 1598 1596 1591 1587 1583 1579 1576 1574 1574 1572 1569 1565 1559 1555 1552 1553 1554 1557 1551 1556 1558 1558 1558 1562 1565
1595 1594 1591 1588 1585 1583 1580 1584 1584 1590 1594 1598 1605 1610 1612 1613 1612 1612 1611 1609 1607 1603 1601 1600 1599 1597 1593 1588 1585 1581 1578 1576 1574 1572 1569 1565 1561 1555 1550 1546 1544 1546 1547 1548 1548 1553 1554 1555 1556
1596 1591 1588 1587 1584 1595 1576 1587 1589 1590 1594 1599 1603 1608 1611 1611 1611 1611 1610 1608 1606 1603 1602 1601 1601 1598 1594 1590 1586 1582 1578 1575 1573 1571 1568 1565 1562 1557 1551 1545 1540 1536 1536 1535 1538 1536 1538 1550 1550
1592 1593 1597 1597 1599 1595 1582 1589 1594 1597 1599 1603 1605 1609 1609 1610 1611 1611 1609 1608 1606 1604 1604 1601 1600 1598 1594 1590 1586 1582 1579 1575 1573 1570 1568 1565 1561 1557 1553 1546 1540 1535 1532 1530 1530 1532 1531 1530 1530
1599 1598 1605 1609 1593 1586 1583 1589 1601 1596 1600 1603 1606 1608 1609 1611 1611 1610 1609 1607 1607 1605 1603 1601 1599 1597 1594 1590 1586 1582 1578 1574 1571 1569 1567 1564 1561 1558 1555 1549 1541 1536 1532 1529 1526 1527 1526 1525 1525
1601 1604 1610 1611 1600 1605 1577 1590 1593 1593 1597 1601 1604 1606 1608 1609 1609 1609 1608 1606 1605 1604 1602 1599 1598 1596 1594 1589 1585 1581 1577 1573 1570 1567 1566 1563 1560 1557 1553 1550 1544 1537 1532 1528 1525 1524 1523 1521 1521
1608 1611 1614 1621 1617 1613 1585 1577 1576 1591 1593 1598 1602 1604 1607 1608 1608 1607 1606 1605 1604 1602 1600 1598 1597 1595 1592 1588 1584 1580 1576 1573 1569 1565 1562 1559 1557 1555 1551 1548 1543 1538 1533 1528 1523 1520 1519 1518 1519
1612 1614 1617 1617 1616 1613 1602 1586 1582 1587 1594 1599 1602 1603 1605 1606 1606 1605 1604 1603 1602 1600 1598 1596 1594 1593 1590 1587 1583 1580 1576 1572 1568 1563 1559 1556 1554 1552 1549 1546 1541 1536 1534 1529 1524 1518 1516 1514 1513
1608 1608 1614 1619 1621 1616 1610 1603 1588 1594 1599 1601 1602 1603 1604 1605 1604 1603 1602 1601 1600 1598 1596 1594 1592 1590 1587 1585 1582 1579 1575 1571 1567 1562 1558 1553 1550 1548 1546 1543 1539 1535 1531 1527 1523 1519 1516 1513 1511